Beaufort, NC

1:30 AM EDT on October 21, 2017 (GMT -0400)
Smith

Weather History for KMRH - April, 2012

Change the Weather History Date:

Monday, April 9, 2012

  Actual Average Record
Temperature  
Mean Temperature 64 °F -  
Max Temperature 72 °F 68 °F 88 °F (1965)
Min Temperature 57 °F 47 °F 30 °F (1972)
Degree Days  
Heating Degree Days 1    
Growing Degree Days 14 (Base 50)    
Moisture  
Dew Point 47 °F    
Average Humidity 55    
Maximum Humidity 84    
Minimum Humidity 24    
Precipitation  
Precipitation 0.00 in - - ()
Sea Level Pressure  
Sea Level Pressure 29.97 in    
Wind  
Wind Speed 12 mph (WSW)    
Max Wind Speed 16 mph    
Max Gust Speed 21 mph    
Visibility 10 miles    
Events      
Averages and records for this station are not official NWS values.
T = Trace of Precipitation, MM = Missing Value Source: NWS Daily Summary

Daily Weather History Graph

Daily Weather History Graph

Search for Another Location

Airport or City:

Trip Planner

Search our weather history database for the weather conditions in past years. The results will help you decide how hot, cold, wet, or windy it might be!

Date:

Astronomy

Apr. 09, 2012 Rise Set
Actual Time 6:42 AM EDT 7:34 PM EDT
Civil Twilight 6:16 AM EDT 8:00 PM EDT
Nautical Twilight 5:46 AM EDT 8:30 PM EDT
Astronomical Twilight 5:14 AM EDT 9:02 PM EDT
Moon 11:17 PM EDT (4/9) 8:36 AM EDT (4/9)
Length of Visible Light 13h 43m
Length of Day
12h 52m
Waning Gibbous, 88% of the Moon is Illuminated
Apr 9
Waning Gibbous
Apr 13
Last Quarter
Apr 21
New
Apr 29
First Quarter
May 5
Full

Hourly Weather History & Observations

Time (EDT) Temp. Dew Point Humidity Pressure Visibility Wind Dir Wind Speed Gust Speed Precip Events Conditions
12:56 AM 64.9 °F 60.1 °F 84% 29.94 in 9.0 mi WSW 13.8 mph 20.7 mph N/A   Clear
1:56 AM 64.9 °F 60.1 °F 84% 29.94 in 8.0 mi WSW 15.0 mph - N/A   Mostly Cloudy
2:56 AM 64.0 °F 57.9 °F 80% 29.95 in 10.0 mi West 8.1 mph - N/A   Clear
3:56 AM 62.1 °F 54.0 °F 75% 29.95 in 10.0 mi WNW 9.2 mph - N/A   Mostly Cloudy
4:56 AM 61.0 °F 52.0 °F 72% 29.96 in 10.0 mi NW 10.4 mph - N/A   Clear
5:56 AM 57.9 °F 48.9 °F 72% 29.99 in 10.0 mi NNW 9.2 mph - N/A   Clear
6:56 AM 59.0 °F 42.1 °F 53% 30.01 in 10.0 mi NNW 10.4 mph - N/A   Clear
8:56 AM 63.0 °F 42.1 °F 46% 30.04 in 10.0 mi North 11.5 mph - N/A   Clear
9:56 AM 66.9 °F 42.1 °F 40% 30.05 in 10.0 mi North 6.9 mph - N/A   Clear
10:56 AM 69.1 °F 30.9 °F 24% 30.04 in 10.0 mi North 9.2 mph - N/A   Clear
11:56 AM 70.0 °F 32.0 °F 25% 30.03 in 10.0 mi WNW 4.6 mph - N/A   Clear
12:56 PM 71.1 °F 32.0 °F 24% 30.01 in 10.0 mi WSW 8.1 mph - N/A   Clear
1:56 PM 69.1 °F 39.0 °F 33% 30.00 in 10.0 mi South 15.0 mph - N/A   Clear
2:56 PM 68.0 °F 44.1 °F 42% 29.99 in 10.0 mi SSW 12.7 mph - N/A   Clear
3:56 PM 68.0 °F 46.9 °F 47% 29.96 in 10.0 mi South 13.8 mph - N/A   Clear
4:56 PM 68.0 °F 46.9 °F 47% 29.94 in 10.0 mi South 15.0 mph - N/A   Clear
5:56 PM 66.9 °F 44.1 °F 44% 29.92 in 10.0 mi South 16.1 mph - N/A   Clear
6:56 PM 64.9 °F 45.0 °F 48% 29.92 in 10.0 mi SSW 12.7 mph - N/A   Clear
7:56 PM 64.0 °F 48.0 °F 56% 29.92 in 10.0 mi SSW 13.8 mph - N/A   Clear
8:56 PM 64.0 °F 50.0 °F 60% 29.93 in 10.0 mi SW 13.8 mph - N/A   Clear
9:56 PM 64.0 °F 53.1 °F 67% 29.94 in 10.0 mi SW 13.8 mph - N/A   Clear
10:56 PM 64.0 °F 52.0 °F 65% 29.93 in 10.0 mi SW 11.5 mph - N/A   Clear
11:56 PM 64.0 °F 53.1 °F 67% 29.93 in 10.0 mi SW 11.5 mph - N/A   Clear